Time,TemperatureF,DewpointF,PressureIn,WindDirection,WindDirectionDegrees,WindSpeedMPH,WindSpeedGustMPH,Humidity,HourlyPrecipIn,Conditions,Clouds,dailyrainin,SolarRadiationWatts/m^2,SoftwareType,DateUTC
2013-02-10 00:01:00,27.0,20.0,-100.00,North,354,13.0,19.0,76,0.00,,,0.00,0.000000,,2013-02-10 07:01:00,
2013-02-10 00:32:00,27.0,20.0,-100.00,North,354,13.0,19.0,76,0.00,,,0.00,0.000000,,2013-02-10 07:32:00,
2013-02-10 00:42:00,27.0,20.0,-100.00,North,354,13.0,19.0,76,0.00,,,0.00,0.000000,,2013-02-10 07:42:00,
2013-02-10 00:52:00,27.0,20.0,-100.00,North,354,13.0,19.0,76,0.00,,,0.00,0.000000,,2013-02-10 07:52:00,
2013-02-10 01:01:00,25.0,18.0,-100.00,NNW,343,12.0,20.0,75,0.00,,,0.00,0.000000,,2013-02-10 08:01:00,
2013-02-10 01:32:00,25.0,18.0,-100.00,NNW,343,12.0,20.0,75,0.00,,,0.00,0.000000,,2013-02-10 08:32:00,
2013-02-10 01:43:00,25.0,18.0,-100.00,NNW,343,12.0,20.0,75,0.00,,,0.00,0.000000,,2013-02-10 08:43:00,
2013-02-10 01:52:00,25.0,18.0,-100.00,NNW,343,12.0,20.0,75,0.00,,,0.00,0.000000,,2013-02-10 08:52:00,
2013-02-10 02:01:00,24.0,22.0,-100.00,NW,315,13.0,21.0,93,0.00,,,0.00,0.000000,,2013-02-10 09:01:00,
2013-02-10 02:21:00,24.0,22.0,-100.00,NW,315,13.0,21.0,93,0.00,,,0.00,0.000000,,2013-02-10 09:21:00,
2013-02-10 02:32:00,24.0,22.0,-100.00,NW,315,13.0,21.0,93,0.00,,,0.00,0.000000,,2013-02-10 09:32:00,
2013-02-10 02:42:00,24.0,22.0,-100.00,NW,315,13.0,21.0,93,0.00,,,0.00,0.000000,,2013-02-10 09:42:00,
2013-02-10 02:52:00,24.0,22.0,-100.00,NW,315,13.0,21.0,93,0.00,,,0.00,0.000000,,2013-02-10 09:52:00,
2013-02-10 03:01:00,24.0,23.0,-100.00,NNW,339,14.0,21.0,94,0.00,,,0.00,0.000000,,2013-02-10 10:01:00,
2013-02-10 03:32:00,24.0,23.0,-100.00,NNW,339,14.0,21.0,94,0.00,,,0.00,0.000000,,2013-02-10 10:32:00,
2013-02-10 03:42:00,24.0,23.0,-100.00,NNW,339,14.0,21.0,94,0.00,,,0.00,0.000000,,2013-02-10 10:42:00,
2013-02-10 03:52:00,24.0,23.0,-100.00,NNW,339,14.0,21.0,94,0.00,,,0.00,0.000000,,2013-02-10 10:52:00,
2013-02-10 04:01:00,24.0,22.0,-100.00,NW,325,14.0,21.0,93,0.00,,,0.00,0.000000,,2013-02-10 11:01:00,
2013-02-10 04:22:00,24.0,22.0,-100.00,NW,325,14.0,21.0,93,0.00,,,0.00,0.000000,,2013-02-10 11:22:00,
2013-02-10 04:32:00,24.0,22.0,-100.00,NW,325,14.0,21.0,93,0.00,,,0.00,0.000000,,2013-02-10 11:32:00,
2013-02-10 04:42:00,24.0,22.0,-100.00,NW,325,14.0,21.0,93,0.00,,,0.00,0.000000,,2013-02-10 11:42:00,
2013-02-10 04:52:00,24.0,22.0,-100.00,NW,325,14.0,21.0,93,0.00,,,0.00,0.000000,,2013-02-10 11:52:00,
2013-02-10 08:01:00,23.0,21.0,-100.00,NW,321,18.0,32.0,92,-99.99,,,0.00,13.000000,,2013-02-10 15:01:00,
2013-02-10 08:32:00,23.0,21.0,-100.00,NW,321,18.0,32.0,92,-99.99,,,0.00,13.000000,,2013-02-10 15:32:00,
2013-02-10 08:42:00,23.0,21.0,-100.00,NW,321,18.0,32.0,92,-99.99,,,0.00,13.000000,,2013-02-10 15:42:00,
2013-02-10 08:52:00,23.0,21.0,-100.00,NW,321,18.0,32.0,92,-99.99,,,0.00,13.000000,,2013-02-10 15:52:00,
2013-02-10 09:01:00,22.0,20.0,-100.00,NW,316,24.0,39.0,92,0.00,,,0.00,34.000000,,2013-02-10 16:01:00,
2013-02-10 09:32:00,22.0,20.0,-100.00,NW,316,24.0,39.0,92,0.00,,,0.00,34.000000,,2013-02-10 16:32:00,
2013-02-10 09:42:00,22.0,20.0,-100.00,NW,316,24.0,39.0,92,0.00,,,0.00,34.000000,,2013-02-10 16:42:00,
2013-02-10 09:52:00,22.0,20.0,-100.00,NW,316,24.0,39.0,92,0.00,,,0.00,34.000000,,2013-02-10 16:52:00,
2013-02-10 10:01:00,20.0,17.0,-100.00,NW,319,19.0,37.0,89,0.00,,,0.00,113.000000,,2013-02-10 17:01:00,
2013-02-10 10:32:00,20.0,17.0,-100.00,NW,319,19.0,37.0,89,0.00,,,0.00,113.000000,,2013-02-10 17:32:00,
2013-02-10 10:42:00,20.0,17.0,-100.00,NW,319,19.0,37.0,89,0.00,,,0.00,113.000000,,2013-02-10 17:42:00,
2013-02-10 10:52:00,20.0,17.0,-100.00,NW,319,19.0,37.0,89,0.00,,,0.00,113.000000,,2013-02-10 17:52:00,
2013-02-10 11:01:00,22.0,17.0,-100.00,NW,321,24.0,31.0,81,0.00,,,0.00,343.000000,,2013-02-10 18:01:00,
2013-02-10 11:32:00,22.0,17.0,-100.00,NW,321,24.0,31.0,81,0.00,,,0.00,343.000000,,2013-02-10 18:32:00,
2013-02-10 11:42:00,22.0,17.0,-100.00,NW,321,24.0,31.0,81,0.00,,,0.00,343.000000,,2013-02-10 18:42:00,
2013-02-10 11:52:00,22.0,17.0,-100.00,NW,321,24.0,31.0,81,0.00,,,0.00,343.000000,,2013-02-10 18:52:00,
2013-02-10 12:01:00,21.0,15.0,-100.00,NW,324,23.0,38.0,76,0.00,,,0.00,345.000000,,2013-02-10 19:01:00,
2013-02-10 12:32:00,21.0,15.0,-100.00,NW,324,23.0,38.0,76,0.00,,,0.00,345.000000,,2013-02-10 19:32:00,
2013-02-10 12:43:00,21.0,15.0,-100.00,NW,324,23.0,38.0,76,0.00,,,0.00,345.000000,,2013-02-10 19:43:00,
2013-02-10 12:52:00,21.0,15.0,-100.00,NW,324,23.0,38.0,76,0.00,,,0.00,345.000000,,2013-02-10 19:52:00,
2013-02-10 13:01:00,21.0,15.0,-100.00,NW,319,17.0,33.0,77,0.00,,,0.00,252.000000,,2013-02-10 20:01:00,
2013-02-10 13:22:00,21.0,15.0,-100.00,NW,319,17.0,33.0,77,0.00,,,0.00,252.000000,,2013-02-10 20:22:00,
2013-02-10 13:32:00,21.0,15.0,-100.00,NW,319,17.0,33.0,77,0.00,,,0.00,252.000000,,2013-02-10 20:32:00,
2013-02-10 13:42:00,21.0,15.0,-100.00,NW,319,17.0,33.0,77,0.00,,,0.00,252.000000,,2013-02-10 20:42:00,
2013-02-10 13:52:00,21.0,15.0,-100.00,NW,319,17.0,33.0,77,0.00,,,0.00,252.000000,,2013-02-10 20:52:00,
2013-02-10 14:01:00,21.0,16.0,-100.00,NW,317,17.0,31.0,80,0.00,,,0.00,255.000000,,2013-02-10 21:01:00,
2013-02-10 14:32:00,21.0,16.0,-100.00,NW,317,17.0,31.0,80,0.00,,,0.00,255.000000,,2013-02-10 21:32:00,
2013-02-10 14:42:00,21.0,16.0,-100.00,NW,317,17.0,31.0,80,0.00,,,0.00,255.000000,,2013-02-10 21:42:00,
2013-02-10 14:52:00,21.0,16.0,-100.00,NW,317,17.0,31.0,80,0.00,,,0.00,255.000000,,2013-02-10 21:52:00,
2013-02-10 15:01:00,20.0,15.0,-100.00,NW,323,20.0,30.0,82,0.00,,,0.00,210.000000,,2013-02-10 22:01:00,
2013-02-10 15:32:00,20.0,15.0,-100.00,NW,323,20.0,30.0,82,0.00,,,0.00,210.000000,,2013-02-10 22:32:00,
2013-02-10 15:42:00,20.0,15.0,-100.00,NW,323,20.0,30.0,82,0.00,,,0.00,210.000000,,2013-02-10 22:42:00,
2013-02-10 15:52:00,20.0,15.0,-100.00,NW,323,20.0,30.0,82,0.00,,,0.00,210.000000,,2013-02-10 22:52:00,
2013-02-10 16:01:00,18.0,14.0,-100.00,NW,321,18.0,30.0,85,0.00,,,0.00,132.000000,,2013-02-10 23:01:00,
2013-02-10 16:22:00,18.0,14.0,-100.00,NW,321,18.0,30.0,85,0.00,,,0.00,132.000000,,2013-02-10 23:22:00,
2013-02-10 16:32:00,18.0,14.0,-100.00,NW,321,18.0,30.0,85,0.00,,,0.00,132.000000,,2013-02-10 23:32:00,
2013-02-10 16:42:00,18.0,14.0,-100.00,NW,321,18.0,30.0,85,0.00,,,0.00,132.000000,,2013-02-10 23:42:00,
2013-02-10 16:52:00,18.0,14.0,-100.00,NW,321,18.0,30.0,85,0.00,,,0.00,132.000000,,2013-02-10 23:52:00,
2013-02-10 17:01:00,17.0,13.0,-100.00,NW,322,19.0,26.0,85,0.00,,,0.00,57.000000,,2013-02-11 00:01:00,
2013-02-10 17:32:00,17.0,13.0,-100.00,NW,322,19.0,26.0,85,0.00,,,0.00,57.000000,,2013-02-11 00:32:00,
2013-02-10 17:42:00,17.0,13.0,-100.00,NW,322,19.0,26.0,85,0.00,,,0.00,57.000000,,2013-02-11 00:42:00,
2013-02-10 17:52:00,17.0,13.0,-100.00,NW,322,19.0,26.0,85,0.00,,,0.00,57.000000,,2013-02-11 00:52:00,
2013-02-10 18:01:00,16.0,13.0,-100.00,NNW,335,17.0,24.0,86,0.00,,,0.00,4.000000,,2013-02-11 01:01:00,
2013-02-10 18:32:00,16.0,13.0,-100.00,NNW,335,17.0,24.0,86,0.00,,,0.00,4.000000,,2013-02-11 01:32:00,
2013-02-10 18:42:00,16.0,13.0,-100.00,NNW,335,17.0,24.0,86,0.00,,,0.00,4.000000,,2013-02-11 01:42:00,
2013-02-10 18:52:00,16.0,13.0,-100.00,NNW,335,17.0,24.0,86,0.00,,,0.00,4.000000,,2013-02-11 01:52:00,
2013-02-10 19:01:00,15.0,12.0,-100.00,NNW,332,18.0,28.0,86,0.00,,,0.00,0.000000,,2013-02-11 02:01:00,
2013-02-10 19:32:00,15.0,12.0,-100.00,NNW,332,18.0,28.0,86,0.00,,,0.00,0.000000,,2013-02-11 02:32:00,
2013-02-10 19:42:00,15.0,12.0,-100.00,NNW,332,18.0,28.0,86,0.00,,,0.00,0.000000,,2013-02-11 02:42:00,
2013-02-10 19:52:00,15.0,12.0,-100.00,NNW,332,18.0,28.0,86,0.00,,,0.00,0.000000,,2013-02-11 02:52:00,
2013-02-10 20:01:00,14.0,11.0,-100.00,NW,323,15.0,26.0,87,0.00,,,0.00,0.000000,,2013-02-11 03:01:00,
2013-02-10 20:21:00,14.0,11.0,-100.00,NW,323,15.0,26.0,87,0.00,,,0.00,0.000000,,2013-02-11 03:21:00,
2013-02-10 20:32:00,14.0,11.0,-100.00,NW,323,15.0,26.0,87,0.00,,,0.00,0.000000,,2013-02-11 03:32:00,
2013-02-10 20:42:00,14.0,11.0,-100.00,NW,323,15.0,26.0,87,0.00,,,0.00,0.000000,,2013-02-11 03:42:00,
2013-02-10 20:52:00,14.0,11.0,-100.00,NW,323,15.0,26.0,87,0.00,,,0.00,0.000000,,2013-02-11 03:52:00,
2013-02-10 21:01:00,14.0,11.0,-100.00,NW,321,13.0,22.0,88,0.00,,,0.00,0.000000,,2013-02-11 04:01:00,
2013-02-10 21:22:00,14.0,11.0,-100.00,NW,321,13.0,22.0,88,0.00,,,0.00,0.000000,,2013-02-11 04:22:00,
2013-02-10 21:32:00,14.0,11.0,-100.00,NW,321,13.0,22.0,88,0.00,,,0.00,0.000000,,2013-02-11 04:32:00,
2013-02-10 21:42:00,14.0,11.0,-100.00,NW,321,13.0,22.0,88,0.00,,,0.00,0.000000,,2013-02-11 04:42:00,
2013-02-10 21:52:00,14.0,11.0,-100.00,NW,321,13.0,22.0,88,0.00,,,0.00,0.000000,,2013-02-11 04:52:00,
2013-02-10 22:01:00,14.0,11.0,-100.00,NW,310,9.0,18.0,88,0.00,,,0.00,0.000000,,2013-02-11 05:01:00,
2013-02-10 22:22:00,14.0,11.0,-100.00,NW,310,9.0,18.0,88,0.00,,,0.00,0.000000,,2013-02-11 05:22:00,
2013-02-10 22:32:00,14.0,11.0,-100.00,NW,310,9.0,18.0,88,0.00,,,0.00,0.000000,,2013-02-11 05:32:00,
2013-02-10 22:42:00,14.0,11.0,-100.00,NW,310,9.0,18.0,88,0.00,,,0.00,0.000000,,2013-02-11 05:42:00,
2013-02-10 22:53:00,14.0,11.0,-100.00,NW,310,9.0,18.0,88,0.00,,,0.00,0.000000,,2013-02-11 05:53:00,
2013-02-10 23:01:00,14.0,11.0,-100.00,NW,306,10.0,19.0,88,0.00,,,0.00,0.000000,,2013-02-11 06:01:00,
2013-02-10 23:32:00,14.0,11.0,-100.00,NW,306,10.0,19.0,88,0.00,,,0.00,0.000000,,2013-02-11 06:32:00,
2013-02-10 23:42:00,14.0,11.0,-100.00,NW,306,10.0,19.0,88,0.00,,,0.00,0.000000,,2013-02-11 06:42:00,
2013-02-10 23:52:00,14.0,11.0,-100.00,NW,306,10.0,19.0,88,0.00,,,0.00,0.000000,,2013-02-11 06:52:00,